Location: ???? ????
(41.4149°N, 22.8816°E)
Time: 12:00:50
(UTC+00:00)

Cosmos 1656 - Pass Details

Date: 14 July 2020
Orbit: 800 x 848 km, 71.1° (Epoch: 10 August)

Event Time Altitude Azimuth Distance (km) Brightness Sun altitude
Rises 00:47:13 0° 330° (NNW) 3,315 7.2 -19.8°
Reaches altitude 10° 00:49:43 10° 324° (NW) 2,382 6.3 -19.6°
Maximum altitude 00:54:51 45° 253° (WSW) 1,093 3.9 -19.1°
Enters shadow 00:56:26 35° 212° (SSW) 1,273 4.1 -18.9°
